Time,TemperatureF,DewpointF,PressureIn,WindDirection,WindDirectionDegrees,WindSpeedMPH,WindSpeedGustMPH,Humidity,HourlyPrecipIn,Conditions,Clouds,dailyrainin,SoftwareType,DateUTC
2013-05-09 00:01:00,56.0,-99.9,30.15,WNW,287,1.0,2.0,-999,-99.99,,,-99.99,,2013-05-09 07:01:00,
2013-05-09 00:12:00,56.0,-99.9,30.14,WNW,291,2.0,3.0,-999,-99.99,,,-99.99,,2013-05-09 07:12:00,
2013-05-09 00:22:00,56.0,-99.9,30.14,WSW,252,2.0,2.0,-999,-99.99,,,-99.99,,2013-05-09 07:22:00,
2013-05-09 00:32:00,56.0,-99.9,30.14,WNW,288,2.0,3.0,-999,-99.99,,,-99.99,,2013-05-09 07:32:00,
2013-05-09 00:43:00,56.0,-99.9,30.15,WNW,300,3.0,4.0,-999,-99.99,,,-99.99,,2013-05-09 07:43:00,
2013-05-09 00:52:00,56.0,-99.9,30.15,WSW,245,4.0,5.0,-999,-99.99,,,-99.99,,2013-05-09 07:52:00,
2013-05-09 01:02:00,56.0,-99.9,30.15,SW,228,3.0,5.0,-999,-99.99,,,-99.99,,2013-05-09 08:02:00,
2013-05-09 01:11:00,56.0,-99.9,30.15,SW,228,3.0,4.0,-999,-99.99,,,-99.99,,2013-05-09 08:11:00,
2013-05-09 01:22:00,56.0,-99.9,30.15,SSW,204,3.0,5.0,-999,-99.99,,,-99.99,,2013-05-09 08:22:00,
2013-05-09 01:32:00,55.0,-99.9,30.15,NW,316,2.0,4.0,-999,-99.99,,,-99.99,,2013-05-09 08:32:00,
2013-05-09 01:42:00,56.0,-99.9,30.15,NNW,331,3.0,6.0,-999,-99.99,,,-99.99,,2013-05-09 08:42:00,
2013-05-09 01:52:00,56.0,-99.9,30.15,NW,306,3.0,6.0,-999,-99.99,,,-99.99,,2013-05-09 08:52:00,
2013-05-09 02:02:00,56.0,-99.9,30.15,NW,308,4.0,6.0,-999,-99.99,,,-99.99,,2013-05-09 09:02:00,
2013-05-09 02:12:00,56.0,-99.9,30.15,NW,308,4.0,6.0,-999,-99.99,,,-99.99,,2013-05-09 09:12:00,
2013-05-09 02:22:00,56.0,-99.9,30.14,West,269,2.0,4.0,-999,-99.99,,,-99.99,,2013-05-09 09:22:00,
2013-05-09 02:32:00,56.0,-99.9,30.14,West,269,2.0,4.0,-999,-99.99,,,-99.99,,2013-05-09 09:32:00,
2013-05-09 02:43:00,56.0,-99.9,30.14,WSW,250,1.0,2.0,-999,-99.99,,,-99.99,,2013-05-09 09:43:00,
2013-05-09 02:53:00,56.0,-99.9,30.14,South,178,2.0,3.0,-999,-99.99,,,-99.99,,2013-05-09 09:53:00,
2013-05-09 03:02:00,56.0,-99.9,30.14,SW,217,0.0,0.0,-999,-99.99,,,-99.99,,2013-05-09 10:02:00,
2013-05-09 03:12:00,56.0,-99.9,30.14,SSW,197,3.0,5.0,-999,-99.99,,,-99.99,,2013-05-09 10:12:00,
2013-05-09 03:23:00,55.0,-99.9,30.13,South,191,3.0,4.0,-999,-99.99,,,-99.99,,2013-05-09 10:23:00,
2013-05-09 03:33:00,55.0,-99.9,30.13,ESE,109,1.0,4.0,-999,-99.99,,,-99.99,,2013-05-09 10:33:00,
2013-05-09 03:42:00,55.0,-99.9,30.13,SSW,192,2.0,3.0,-999,-99.99,,,-99.99,,2013-05-09 10:42:00,
2013-05-09 03:53:00,56.0,-99.9,30.13,South,177,2.0,4.0,-999,-99.99,,,-99.99,,2013-05-09 10:53:00,
2013-05-09 04:02:00,55.0,-99.9,30.14,WSW,258,5.0,6.0,-999,-99.99,,,-99.99,,2013-05-09 11:02:00,
2013-05-09 04:12:00,55.0,-99.9,30.14,WSW,258,5.0,6.0,-999,-99.99,,,-99.99,,2013-05-09 11:12:00,
2013-05-09 04:22:00,55.0,-99.9,30.13,NW,309,4.0,6.0,-999,-99.99,,,-99.99,,2013-05-09 11:22:00,
2013-05-09 04:32:00,55.0,-99.9,30.13,WNW,295,4.0,5.0,-999,-99.99,,,-99.99,,2013-05-09 11:32:00,
2013-05-09 04:42:00,55.0,-99.9,30.12,NW,304,6.0,8.0,-999,-99.99,,,-99.99,,2013-05-09 11:42:00,
2013-05-09 04:52:00,55.0,-99.9,30.13,NW,307,5.0,6.0,-999,-99.99,,,-99.99,,2013-05-09 11:52:00,
2013-05-09 05:02:00,55.0,-99.9,30.13,NW,307,5.0,6.0,-999,-99.99,,,-99.99,,2013-05-09 12:02:00,
2013-05-09 05:12:00,55.0,-99.9,30.13,NW,304,5.0,7.0,-999,-99.99,,,-99.99,,2013-05-09 12:12:00,
2013-05-09 05:22:00,55.0,-99.9,30.12,NW,305,5.0,8.0,-999,-99.99,,,-99.99,,2013-05-09 12:22:00,
2013-05-09 05:32:00,55.0,-99.9,30.12,NW,308,5.0,7.0,-999,-99.99,,,-99.99,,2013-05-09 12:32:00,
2013-05-09 05:43:00,55.0,-99.9,30.12,NW,305,5.0,9.0,-999,-99.99,,,-99.99,,2013-05-09 12:43:00,
2013-05-09 05:52:00,54.0,-99.9,30.12,WNW,295,5.0,8.0,-999,-99.99,,,-99.99,,2013-05-09 12:52:00,
2013-05-09 06:02:00,54.0,-99.9,30.12,WNW,295,5.0,8.0,-999,-99.99,,,-99.99,,2013-05-09 13:02:00,
2013-05-09 06:12:00,54.0,-99.9,30.12,WNW,295,5.0,8.0,-999,-99.99,,,-99.99,,2013-05-09 13:12:00,
2013-05-09 06:22:00,54.0,-99.9,30.12,WNW,295,5.0,8.0,-999,-99.99,,,-99.99,,2013-05-09 13:22:00,
2013-05-09 06:32:00,54.0,-99.9,30.13,WNW,287,2.0,4.0,-999,-99.99,,,-99.99,,2013-05-09 13:32:00,
2013-05-09 06:42:00,54.0,-99.9,30.13,West,271,2.0,2.0,-999,-99.99,,,-99.99,,2013-05-09 13:42:00,
2013-05-09 06:52:00,55.0,-99.9,30.13,SSW,210,5.0,8.0,-999,-99.99,,,-99.99,,2013-05-09 13:52:00,
2013-05-09 07:02:00,54.0,-99.9,30.13,SSW,207,6.0,8.0,-999,-99.99,,,-99.99,,2013-05-09 14:02:00,
2013-05-09 07:11:00,55.0,-99.9,30.13,SSW,207,6.0,8.0,-999,-99.99,,,-99.99,,2013-05-09 14:11:00,
2013-05-09 07:22:00,54.0,-99.9,30.14,South,183,7.0,9.0,-999,-99.99,,,-99.99,,2013-05-09 14:22:00,
2013-05-09 07:32:00,54.0,-99.9,30.14,South,183,7.0,9.0,-999,-99.99,,,-99.99,,2013-05-09 14:32:00,
2013-05-09 07:42:00,54.0,-99.9,30.14,South,182,7.0,9.0,-999,-99.99,,,-99.99,,2013-05-09 14:42:00,
2013-05-09 07:52:00,54.0,-99.9,30.14,South,173,4.0,7.0,-999,-99.99,,,-99.99,,2013-05-09 14:52:00,
2013-05-09 08:02:00,54.0,-99.9,30.15,South,178,3.0,5.0,-999,-99.99,,,-99.99,,2013-05-09 15:02:00,
2013-05-09 08:11:00,54.0,-99.9,30.15,South,181,3.0,6.0,-999,-99.99,,,-99.99,,2013-05-09 15:11:00,
2013-05-09 08:22:00,55.0,-99.9,30.16,South,180,3.0,4.0,-999,-99.99,,,-99.99,,2013-05-09 15:22:00,
2013-05-09 08:33:00,55.0,-99.9,30.16,SE,136,3.0,6.0,-999,-99.99,,,-99.99,,2013-05-09 15:33:00,
2013-05-09 08:43:00,55.0,-99.9,30.16,South,177,3.0,5.0,-999,-99.99,,,-99.99,,2013-05-09 15:43:00,
2013-05-09 08:53:00,55.0,-99.9,30.16,SSW,193,3.0,6.0,-999,-99.99,,,-99.99,,2013-05-09 15:53:00,
2013-05-09 09:03:00,55.0,-99.9,30.17,South,174,3.0,5.0,-999,-99.99,,,-99.99,,2013-05-09 16:03:00,
2013-05-09 09:12:00,55.0,-99.9,30.17,SSW,208,3.0,6.0,-999,-99.99,,,-99.99,,2013-05-09 16:12:00,
2013-05-09 09:23:00,55.0,-99.9,30.17,SW,225,2.0,4.0,-999,-99.99,,,-99.99,,2013-05-09 16:23:00,
2013-05-09 09:33:00,56.0,-99.9,30.17,South,190,3.0,4.0,-999,-99.99,,,-99.99,,2013-05-09 16:33:00,
2013-05-09 09:42:00,56.0,-99.9,30.17,South,186,6.0,9.0,-999,-99.99,,,-99.99,,2013-05-09 16:42:00,
2013-05-09 09:53:00,56.0,-99.9,30.17,SSE,161,4.0,8.0,-999,-99.99,,,-99.99,,2013-05-09 16:53:00,
2013-05-09 10:02:00,56.0,-99.9,30.17,South,185,5.0,8.0,-999,-99.99,,,-99.99,,2013-05-09 17:02:00,
2013-05-09 10:12:00,56.0,-99.9,30.18,SE,139,4.0,7.0,-999,-99.99,,,-99.99,,2013-05-09 17:12:00,
2013-05-09 10:22:00,57.0,-99.9,30.17,SSE,160,4.0,6.0,-999,-99.99,,,-99.99,,2013-05-09 17:22:00,
2013-05-09 10:32:00,56.0,-99.9,30.17,South,179,7.0,9.0,-999,-99.99,,,-99.99,,2013-05-09 17:32:00,
2013-05-09 10:42:00,56.0,-99.9,30.17,SSW,209,8.0,13.0,-999,-99.99,,,-99.99,,2013-05-09 17:42:00,
2013-05-09 10:55:00,57.0,-99.9,30.17,SSW,207,7.0,12.0,-999,-99.99,,,-99.99,,2013-05-09 17:55:00,
2013-05-09 11:02:00,56.0,-99.9,30.17,SSW,195,9.0,11.0,-999,-99.99,,,-99.99,,2013-05-09 18:02:00,
2013-05-09 11:12:00,56.0,-99.9,30.17,SSW,198,8.0,12.0,-999,-99.99,,,-99.99,,2013-05-09 18:12:00,
2013-05-09 11:22:00,56.0,-99.9,30.17,SSW,198,8.0,12.0,-999,-99.99,,,-99.99,,2013-05-09 18:22:00,
2013-05-09 11:32:00,57.0,-99.9,30.17,SW,214,8.0,11.0,-999,-99.99,,,-99.99,,2013-05-09 18:32:00,
2013-05-09 11:42:00,57.0,-99.9,30.17,SSW,195,9.0,14.0,-999,-99.99,,,-99.99,,2013-05-09 18:42:00,
2013-05-09 11:53:00,56.0,-99.9,30.17,SSW,193,11.0,14.0,-999,-99.99,,,-99.99,,2013-05-09 18:53:00,
2013-05-09 12:01:00,56.0,-99.9,30.17,SSW,196,11.0,14.0,-999,-99.99,,,-99.99,,2013-05-09 19:01:00,
2013-05-09 12:12:00,57.0,-99.9,30.17,SSW,209,8.0,12.0,-999,-99.99,,,-99.99,,2013-05-09 19:12:00,
2013-05-09 12:21:00,58.0,-99.9,30.16,SSW,212,8.0,13.0,-999,-99.99,,,-99.99,,2013-05-09 19:21:00,
2013-05-09 12:32:00,58.0,-99.9,30.16,SW,220,8.0,11.0,-999,-99.99,,,-99.99,,2013-05-09 19:32:00,
2013-05-09 12:42:00,58.0,-99.9,30.16,SW,214,6.0,13.0,-999,-99.99,,,-99.99,,2013-05-09 19:42:00,
2013-05-09 12:52:00,58.0,-99.9,30.16,SSW,196,9.0,10.0,-999,-99.99,,,-99.99,,2013-05-09 19:52:00,
2013-05-09 13:02:00,59.0,-99.9,30.16,SSW,209,7.0,12.0,-999,-99.99,,,-99.99,,2013-05-09 20:02:00,
2013-05-09 13:11:00,58.0,-99.9,30.16,SW,218,9.0,13.0,-999,-99.99,,,-99.99,,2013-05-09 20:11:00,
2013-05-09 13:22:00,58.0,-99.9,30.16,SW,218,9.0,13.0,-999,-99.99,,,-99.99,,2013-05-09 20:22:00,
2013-05-09 13:32:00,59.0,-99.9,30.16,SW,220,10.0,14.0,-999,-99.99,,,-99.99,,2013-05-09 20:32:00,
2013-05-09 13:42:00,58.0,-99.9,30.16,SW,220,12.0,15.0,-999,-99.99,,,-99.99,,2013-05-09 20:42:00,
2013-05-09 13:52:00,59.0,-99.9,30.16,SW,215,8.0,13.0,-999,-99.99,,,-99.99,,2013-05-09 20:52:00,
2013-05-09 14:02:00,60.0,-99.9,30.16,SW,217,8.0,13.0,-999,-99.99,,,-99.99,,2013-05-09 21:02:00,
2013-05-09 14:12:00,59.0,-99.9,30.16,SW,225,10.0,15.0,-999,-99.99,,,-99.99,,2013-05-09 21:12:00,
2013-05-09 14:22:00,60.0,-99.9,30.15,SW,220,8.0,11.0,-999,-99.99,,,-99.99,,2013-05-09 21:22:00,
2013-05-09 14:33:00,60.0,-99.9,30.15,SW,220,9.0,12.0,-999,-99.99,,,-99.99,,2013-05-09 21:33:00,
2013-05-09 14:43:00,61.0,-99.9,30.15,SW,219,7.0,11.0,-999,-99.99,,,-99.99,,2013-05-09 21:43:00,
2013-05-09 14:53:00,61.0,-99.9,30.15,SW,221,7.0,11.0,-999,-99.99,,,-99.99,,2013-05-09 21:53:00,
2013-05-09 15:03:00,61.0,-99.9,30.15,SW,217,7.0,12.0,-999,-99.99,,,-99.99,,2013-05-09 22:03:00,
2013-05-09 15:13:00,61.0,-99.9,30.15,SW,224,8.0,12.0,-999,-99.99,,,-99.99,,2013-05-09 22:13:00,
2013-05-09 15:23:00,61.0,-99.9,30.14,SW,217,9.0,13.0,-999,-99.99,,,-99.99,,2013-05-09 22:23:00,
2013-05-09 15:33:00,60.0,-99.9,30.14,SW,221,9.0,14.0,-999,-99.99,,,-99.99,,2013-05-09 22:33:00,
2013-05-09 15:42:00,60.0,-99.9,30.14,SW,219,10.0,14.0,-999,-99.99,,,-99.99,,2013-05-09 22:42:00,
2013-05-09 15:52:00,60.0,-99.9,30.14,SW,219,9.0,14.0,-999,-99.99,,,-99.99,,2013-05-09 22:52:00,
2013-05-09 16:03:00,60.0,-99.9,30.13,SW,219,9.0,13.0,-999,-99.99,,,-99.99,,2013-05-09 23:03:00,
2013-05-09 16:12:00,61.0,-99.9,30.13,SW,218,9.0,12.0,-999,-99.99,,,-99.99,,2013-05-09 23:12:00,
2013-05-09 16:22:00,60.0,-99.9,30.12,SW,221,11.0,14.0,-999,-99.99,,,-99.99,,2013-05-09 23:22:00,
2013-05-09 16:32:00,60.0,-99.9,30.12,SW,219,9.0,14.0,-999,-99.99,,,-99.99,,2013-05-09 23:32:00,
2013-05-09 16:43:00,60.0,-99.9,30.11,SW,219,9.0,13.0,-999,-99.99,,,-99.99,,2013-05-09 23:43:00,
2013-05-09 16:52:00,61.0,-99.9,30.11,SW,219,9.0,12.0,-999,-99.99,,,-99.99,,2013-05-09 23:52:00,
2013-05-09 17:01:00,60.0,-99.9,30.11,SW,221,13.0,15.0,-999,-99.99,,,-99.99,,2013-05-10 00:01:00,
2013-05-09 17:11:00,60.0,-99.9,30.11,SW,219,10.0,14.0,-999,-99.99,,,-99.99,,2013-05-10 00:11:00,
2013-05-09 17:22:00,60.0,-99.9,30.11,SW,222,10.0,14.0,-999,-99.99,,,-99.99,,2013-05-10 00:22:00,
2013-05-09 17:32:00,59.0,-99.9,30.11,SW,219,10.0,15.0,-999,-99.99,,,-99.99,,2013-05-10 00:32:00,
2013-05-09 17:42:00,59.0,-99.9,30.11,SW,219,10.0,15.0,-999,-99.99,,,-99.99,,2013-05-10 00:42:00,
2013-05-09 17:52:00,60.0,-99.9,30.10,SW,217,9.0,14.0,-999,-99.99,,,-99.99,,2013-05-10 00:52:00,
2013-05-09 18:01:00,60.0,-99.9,30.10,SW,222,11.0,15.0,-999,-99.99,,,-99.99,,2013-05-10 01:01:00,
2013-05-09 18:11:00,60.0,-99.9,30.10,SW,222,10.0,14.0,-999,-99.99,,,-99.99,,2013-05-10 01:11:00,
2013-05-09 18:22:00,59.0,-99.9,30.10,SW,220,11.0,14.0,-999,-99.99,,,-99.99,,2013-05-10 01:22:00,
2013-05-09 18:32:00,60.0,-99.9,30.11,SW,223,9.0,13.0,-999,-99.99,,,-99.99,,2013-05-10 01:32:00,
2013-05-09 18:42:00,60.0,-99.9,30.11,SW,223,9.0,13.0,-999,-99.99,,,-99.99,,2013-05-10 01:42:00,
2013-05-09 18:52:00,60.0,-99.9,30.11,SW,222,9.0,12.0,-999,-99.99,,,-99.99,,2013-05-10 01:52:00,
2013-05-09 19:02:00,58.0,-99.9,30.11,SSW,203,10.0,15.0,-999,-99.99,,,-99.99,,2013-05-10 02:02:00,
2013-05-09 19:11:00,58.0,-99.9,30.11,SSW,207,9.0,13.0,-999,-99.99,,,-99.99,,2013-05-10 02:11:00,
2013-05-09 19:21:00,60.0,-99.9,30.11,SW,231,8.0,13.0,-999,-99.99,,,-99.99,,2013-05-10 02:21:00,
2013-05-09 19:32:00,60.0,-99.9,30.11,SW,234,10.0,13.0,-999,-99.99,,,-99.99,,2013-05-10 02:32:00,
2013-05-09 19:42:00,59.0,-99.9,30.12,SW,232,10.0,14.0,-999,-99.99,,,-99.99,,2013-05-10 02:42:00,
2013-05-09 19:53:00,59.0,-99.9,30.12,WSW,248,10.0,13.0,-999,-99.99,,,-99.99,,2013-05-10 02:53:00,
2013-05-09 20:01:00,58.0,-99.9,30.13,SW,235,8.0,11.0,-999,-99.99,,,-99.99,,2013-05-10 03:01:00,
2013-05-09 20:11:00,59.0,-99.9,30.13,WSW,249,7.0,11.0,-999,-99.99,,,-99.99,,2013-05-10 03:11:00,
2013-05-09 20:22:00,59.0,-99.9,30.14,West,261,6.0,9.0,-999,-99.99,,,-99.99,,2013-05-10 03:22:00,
2013-05-09 20:33:00,59.0,-99.9,30.14,NW,304,8.0,12.0,-999,-99.99,,,-99.99,,2013-05-10 03:33:00,
2013-05-09 20:43:00,59.0,-99.9,30.14,NW,304,8.0,12.0,-999,-99.99,,,-99.99,,2013-05-10 03:43:00,
2013-05-09 20:53:00,59.0,-99.9,30.15,WNW,288,8.0,11.0,-999,-99.99,,,-99.99,,2013-05-10 03:53:00,
2013-05-09 21:03:00,57.0,-99.9,30.15,SW,235,7.0,9.0,-999,-99.99,,,-99.99,,2013-05-10 04:03:00,
2013-05-09 21:12:00,57.0,-99.9,30.16,SW,228,7.0,9.0,-999,-99.99,,,-99.99,,2013-05-10 04:12:00,
2013-05-09 21:23:00,57.0,-99.9,30.16,WSW,237,9.0,10.0,-999,-99.99,,,-99.99,,2013-05-10 04:23:00,
2013-05-09 21:33:00,57.0,-99.9,30.16,SW,219,7.0,9.0,-999,-99.99,,,-99.99,,2013-05-10 04:33:00,
2013-05-09 21:43:00,57.0,-99.9,30.16,SW,219,7.0,9.0,-999,-99.99,,,-99.99,,2013-05-10 04:43:00,
2013-05-09 21:53:00,56.0,-99.9,30.16,SW,224,5.0,10.0,-999,-99.99,,,-99.99,,2013-05-10 04:53:00,
2013-05-09 22:02:00,56.0,-99.9,30.17,WSW,247,4.0,6.0,-999,-99.99,,,-99.99,,2013-05-10 05:02:00,
2013-05-09 22:12:00,56.0,-99.9,30.17,SW,234,5.0,7.0,-999,-99.99,,,-99.99,,2013-05-10 05:12:00,
2013-05-09 22:22:00,57.0,-99.9,30.17,WSW,258,5.0,7.0,-999,-99.99,,,-99.99,,2013-05-10 05:22:00,
2013-05-09 22:32:00,56.0,-99.9,30.18,WSW,250,6.0,9.0,-999,-99.99,,,-99.99,,2013-05-10 05:32:00,
2013-05-09 22:42:00,56.0,-99.9,30.18,WSW,250,8.0,11.0,-999,-99.99,,,-99.99,,2013-05-10 05:42:00,
2013-05-09 22:52:00,56.0,-99.9,30.18,WSW,246,8.0,12.0,-999,-99.99,,,-99.99,,2013-05-10 05:52:00,
2013-05-09 23:02:00,55.0,-99.9,30.18,SW,229,9.0,11.0,-999,-99.99,,,-99.99,,2013-05-10 06:02:00,
2013-05-09 23:12:00,55.0,-99.9,30.18,SW,226,8.0,11.0,-999,-99.99,,,-99.99,,2013-05-10 06:12:00,
2013-05-09 23:22:00,55.0,-99.9,30.18,SW,226,8.0,10.0,-999,-99.99,,,-99.99,,2013-05-10 06:22:00,
2013-05-09 23:32:00,55.0,-99.9,30.18,SW,226,8.0,10.0,-999,-99.99,,,-99.99,,2013-05-10 06:32:00,
2013-05-09 23:42:00,55.0,-99.9,30.18,SW,226,8.0,10.0,-999,-99.99,,,-99.99,,2013-05-10 06:42:00,
2013-05-09 23:52:00,55.0,-99.9,30.19,SW,226,3.0,5.0,-999,-99.99,,,-99.99,,2013-05-10 06:52:00,